Regional Weather Roundup
Issued by NWS

Home | Current Version | Previous Version | Graphics & Text | Print | Product List | Glossary On
Versions: 1 2 3 4 5 6 7 8 9 10 11 12 13 14 15 16 17 18 19 20 21 22 23 24 25 26 27 28 29 30 31 32 33 34 35 36 37 38 39 40 41 42 43 44 45 46 47 48 49 50
000
ASUS43 KIND 092259
RWRIN

WEATHER ROUNDUP FOR INDIANA
NATIONAL WEATHER SERVICE INDIANAPOLIS IN
600 PM EST FRI DEC 09 2016

NOTE: "FAIR" INDICATES FEW OR NO CLOUDS BELOW 12,000 FEET WITH NO
SIGNIFICANT WEATHER AND/OR OBSTRUCTIONS TO VISIBILITY.

* - STATION DOES NOT REPORT WEATHER SUCH AS PRECIPITATION OR FOG.

+ - STATION NOT QUALITY CONTROLLED BY THE NATIONAL WEATHER SERVICE.
    USE DATA WITH CAUTION...ESPECIALLY DEWPOINT AND RELATIVE
    HUMIDITY OBSERVATIONS.

INZ001>003-010>013-019-020-100000-
NORTHWEST INDIANA

CITY           SKY/WX    TMP DP  RH WIND       PRES   REMARKS
GARY /AIRPORT/ MOCLDY    25  14  63 W12       30.52S WCI  14

$$

LMZ046-743>745-100000-
SOUTHERN LAKE MICHIGAN

STATION/POSITION TIME  TEMP    WIND        PRES    WAVE
                       AIR SEA DIR/SP/G            HT
                 (UTC) (F)     (DEG/KT/KT) (MB)    (FT)

$$

INZ004-005-014>016-021>024-100000-
NORTH CENTRAL INDIANA

CITY           SKY/WX    TMP DP  RH WIND       PRES   REMARKS
ELKHART        FLURRIES  25  18  74 W9        30.47R WCI  15
GOSHEN         CLOUDY    25  16  68 W10       30.47R WCI  15
PERU/GRISSOM   FLURRIES  25  18  74 NW8       30.49R WCI  16
SOUTH BEND     LGT SNOW  22  18  85 SW9       30.48S FOG     WCI  12

$$

INZ006>009-017-018-025>027-100000-
NORTHEAST INDIANA

CITY           SKY/WX    TMP DP  RH WIND       PRES   REMARKS
ANGOLA *+      MOCLDY    25  19  80 W8        30.44R WCI  16
FORT WAYNE     FLURRIES  26  15  63 W14       30.47R WCI  14
KENDALLVILLE + FLURRIES  25  19  78 W10       30.45R WCI  14

$$

INZ028-029-035-036-043>045-051>053-100000-
WEST CENTRAL INDIANA

CITY           SKY/WX    TMP DP  RH WIND       PRES   REMARKS
CRAWFORDSVL +  CLOUDY    24  15  71 W8        30.54R WCI  14
GREENCASTLE +  CLOUDY    25  18  74 W5        30.54S WCI  19
LAFAYETTE      CLOUDY    25  16  68 W7        30.53R WCI  17
TERRE HAUTE    CLOUDY    25  14  63 W9        30.57S WCI  15

$$

INZ030>032-037>040-046>048-054>057-064-065-100000-
CENTRAL INDIANA

CITY           SKY/WX    TMP DP  RH WIND       PRES   REMARKS
COLUMBUS       CLOUDY    25  18  74 SW9       30.56R WCI  15
GREENWOOD *+   CLOUDY    26  16  65 W7        30.53R WCI  19
INDIANAPOLIS   FLURRIES  25  16  68 W7        30.52R WCI  17
-EAGLE CREEK   FLURRIES  25  16  68 W6        30.52R WCI  18
KOKOMO +       FLURRIES  25  19  78 W13       30.51R WCI  14
SHELBYVILLE    CLOUDY    26  14  60 W9        30.52R WCI  17

$$

INZ033-034-041-042-049-050-058-059-100000-
EAST CENTRAL INDIANA

CITY           SKY/WX    TMP DP  RH WIND       PRES   REMARKS
MUNCIE         FLURRIES  26  18  71 W8        30.49S WCI  18

$$

INZ060-061-067>069-081>083-085>088-100000-
SOUTHWEST INDIANA

CITY           SKY/WX    TMP DP  RH WIND       PRES   REMARKS
EVANSVILLE     MOCLDY    27  14  58 NW3       30.59F
HUNTINGBURG *+ CLOUDY    26  16  65 NW7       30.58F WCI  18

$$

INZ062-063-066-070>080-084-089>092-100000-
SOUTH CENTRAL AND SOUTHEAST INDIANA

CITY           SKY/WX    TMP DP  RH WIND       PRES   REMARKS
BLOOMINGTON    CLOUDY    24  14  65 SW8       30.55S WCI  15
MADISON *+     CLOUDY    27  14  59 CALM      30.57S
SEYMOUR +      CLOUDY    27  14  59 W6        30.57  WCI  20

$$




USA.gov is the U.S. government's official web portal to all federal, state and local government web resources and services.